Location: Newark
(51.7378°N, 19.8125°E)
Time: 19:21:35
(UTC+00:00)

Envisat - Pass Details

Date: 15 December 2019
Orbit: 764 x 766 km, 98.1° (Epoch: 28 January)

Event Time Altitude Azimuth Distance (km) Brightness Sun altitude
Rises 17:52:10 0° 210° (SSW) 3,224 6.6 -29.7°
Reaches altitude 10° 17:55:10 10° 229° (SW) 2,303 6.0 -30.2°
Maximum altitude 17:58:38 18° 272° (W) 1,805 5.6 -30.7°
Drops below altitude 10° 18:02:07 10° 315° (NW) 2,316 6.0 -31.3°
Sets 18:05:10 0° 334° (NNW) 3,248 6.6 -31.8°
